Paris, IL

12:31 AM CDT on April 20, 2018 (GMT -0500)
Edgar County

Weather History for KPRG - October, 2013

Change the Weather History Date:

Sunday, October 27, 2013

  Actual Average (KHUF) Record (KHUF)
Temperature  
Mean Temperature 42 °F -  
Max Temperature 58 °F 61 °F 85 °F (1963)
Min Temperature 25 °F 38 °F 24 °F (1962)
Degree Days  
Heating Degree Days 24    
Moisture  
Dew Point 28 °F    
Average Humidity 71    
Maximum Humidity 96    
Minimum Humidity 30    
Precipitation  
Precipitation 0.00 in - - ()
Sea Level Pressure  
Sea Level Pressure 30.09 in    
Wind  
Wind Speed 2 mph (WSW)    
Max Wind Speed 10 mph    
Max Gust Speed -    
Visibility 10 miles    
Events      
Averages and records for this station are not official NWS values.
T = Trace of Precipitation, MM = Missing Value Source: NWS Daily Summary

Daily Weather History Graph

Daily Weather History Graph

Search for Another Location

Airport or City:

Astronomy

Oct. 27, 2013 Rise Set
Actual Time 7:13 AM CDT 5:54 PM CDT
Civil Twilight 6:46 AM CDT 6:22 PM CDT
Nautical Twilight 6:14 AM CDT 6:53 PM CDT
Astronomical Twilight 5:43 AM CDT 7:25 PM CDT
Moon 12:12 AM CDT (10/27) 2:02 PM CDT (10/27)
Length of Visible Light 11h 35m
Length of Day
10h 40m
Last Quarter, 43% of the Moon is Illuminated
Oct 27
Last Quarter
Nov 3
New
Nov 9
First Quarter
Nov 17
Full
Nov 25
Last Quarter

Hourly Weather History & Observations

Time (CDT) Temp. Windchill Dew Point Humidity Pressure Visibility Wind Dir Wind Speed Gust Speed Precip Events Conditions
12:15 AM 34.7 °F 30.6 °F 29.8 °F 82% 30.10 in 10.0 mi NW 4.6 mph - N/A   Clear
12:35 AM 34.3 °F 30.2 °F 29.7 °F 83% 30.10 in 10.0 mi NW 4.6 mph - N/A   Clear
12:55 AM 34.0 °F 31.0 °F 29.3 °F 83% 30.09 in 10.0 mi NW 3.5 mph - N/A   Clear
1:15 AM 32.5 °F 27.1 °F 28.9 °F 87% 30.09 in 10.0 mi WNW 5.8 mph - N/A   Clear
1:35 AM 31.6 °F - 28.0 °F 87% 30.09 in 10.0 mi Calm Calm - N/A   Clear
1:55 AM 29.7 °F - 27.0 °F 90% 30.10 in 10.0 mi Calm Calm - N/A   Clear
2:15 AM 28.8 °F - 26.2 °F 90% 30.09 in 10.0 mi Calm Calm - N/A   Clear
2:35 AM 29.1 °F - 27.1 °F 92% 30.08 in 10.0 mi Calm Calm - N/A   Clear
2:55 AM 28.6 °F - 26.2 °F 91% 30.09 in 10.0 mi Calm Calm - N/A   Clear
3:15 AM 27.9 °F - 26.1 °F 93% 30.09 in 10.0 mi Calm Calm - N/A   Clear
3:35 AM 29.5 °F - 28.0 °F 94% 30.08 in 10.0 mi Calm Calm - N/A   Clear
3:55 AM 30.9 °F - 28.6 °F 91% 30.08 in 10.0 mi Calm Calm - N/A   Clear
4:15 AM 29.7 °F - 27.5 °F 92% 30.08 in 10.0 mi Calm Calm - N/A   Clear
4:35 AM 28.9 °F - 27.1 °F 93% 30.08 in 10.0 mi Calm Calm - N/A   Clear
4:55 AM 28.4 °F - 27.1 °F 95% 30.09 in 10.0 mi Calm Calm - N/A   Clear
5:15 AM 27.1 °F - 25.5 °F 94% 30.09 in 10.0 mi Calm Calm - N/A   Clear
5:35 AM 26.8 °F - 25.3 °F 94% 30.10 in 10.0 mi Calm Calm - N/A   Clear
5:55 AM 26.8 °F - 25.3 °F 94% 30.10 in 10.0 mi Calm Calm - N/A   Clear
6:15 AM 26.6 °F - 25.2 °F 94% 30.10 in 10.0 mi Calm Calm - N/A   Clear
6:35 AM 27.1 °F - 26.1 °F 96% 30.10 in 10.0 mi Calm Calm - N/A   Clear
6:55 AM 25.9 °F - 24.8 °F 96% 30.10 in 10.0 mi Calm Calm - N/A   Clear
7:15 AM 26.4 °F - 25.5 °F 96% 30.11 in 10.0 mi Calm Calm - N/A   Clear
7:35 AM 26.4 °F - 25.0 °F 94% 30.11 in 10.0 mi Calm Calm - N/A   Clear
7:55 AM 27.5 °F - 26.1 °F 94% 30.12 in 10.0 mi Calm Calm - N/A   Clear
8:15 AM 30.2 °F - 28.6 °F 94% 30.12 in 10.0 mi Calm Calm - N/A   Clear
8:35 AM 32.9 °F - 30.9 °F 92% 30.12 in 10.0 mi Calm Calm - N/A   Clear
8:55 AM 36.5 °F - 32.2 °F 84% 30.12 in 10.0 mi Calm Calm - N/A   Clear
9:15 AM 38.7 °F - 32.9 °F 80% 30.12 in 10.0 mi Calm Calm - N/A   Clear
9:35 AM 41.5 °F - 33.6 °F 73% 30.12 in 10.0 mi Calm Calm - N/A   Clear
9:55 AM 44.6 °F - 34.3 °F 67% 30.12 in 10.0 mi Calm Calm - N/A   Clear
10:15 AM 47.8 °F - 33.3 °F 57% 30.12 in 10.0 mi Calm Calm - N/A   Clear
10:35 AM 50.2 °F - 33.3 °F 52% 30.12 in 10.0 mi SW 3.5 mph - N/A   Clear
10:55 AM 51.1 °F - 31.8 °F 48% 30.12 in 10.0 mi WSW 4.6 mph - N/A   Clear
11:15 AM 52.7 °F - 30.4 °F 42% 30.12 in 10.0 mi SW 5.8 mph - N/A   Clear
11:35 AM 53.8 °F - 28.6 °F 38% 30.12 in 10.0 mi West 4.6 mph - N/A   Clear
11:55 AM 54.5 °F - 28.9 °F 38% 30.11 in 10.0 mi West 6.9 mph - N/A   Clear
12:15 PM 55.0 °F - 28.6 °F 36% 30.11 in 10.0 mi West 6.9 mph - N/A   Clear
12:35 PM 55.4 °F - 27.9 °F 35% 30.10 in 10.0 mi West 9.2 mph - N/A   Clear
12:55 PM 55.8 °F - 27.9 °F 34% 30.09 in 10.0 mi SSW 5.8 mph - N/A   Clear
1:15 PM 55.8 °F - 26.8 °F 33% 30.08 in 10.0 mi West 6.9 mph - N/A   Clear
1:35 PM 56.3 °F - 27.5 °F 33% 30.07 in 10.0 mi SW 10.4 mph - N/A   Clear
1:55 PM 57.0 °F - 26.8 °F 31% 30.07 in 10.0 mi West 6.9 mph - N/A   Clear
2:15 PM 57.9 °F - 27.1 °F 31% 30.06 in 10.0 mi WSW 10.4 mph - N/A   Clear
2:35 PM 58.1 °F - 27.3 °F 31% 30.06 in 10.0 mi SSW 8.1 mph - N/A   Clear
2:55 PM 57.6 °F - 27.1 °F 31% 30.05 in 10.0 mi SSW 5.8 mph - N/A   Clear
3:15 PM 58.1 °F - 27.0 °F 30% 30.05 in 10.0 mi WSW 4.6 mph - N/A   Clear
5:35 PM 52.5 °F - 28.0 °F 39% 30.05 in 10.0 mi SSW 5.8 mph - N/A   Clear
5:55 PM 48.7 °F - 28.2 °F 45% 30.05 in 5.0 mi SSW 4.6 mph - N/A   Haze
6:15 PM 46.2 °F - 27.9 °F 49% 30.05 in 7.0 mi Calm Calm - N/A   Clear
6:35 PM 41.2 °F - 27.1 °F 57% 30.05 in 10.0 mi Calm Calm - N/A   Clear
6:55 PM 40.6 °F - 27.5 °F 59% 30.05 in 10.0 mi Calm Calm - N/A   Clear
7:15 PM 38.8 °F 36.5 °F 27.5 °F 64% 30.05 in 10.0 mi South 3.5 mph - N/A   Clear
7:35 PM 37.2 °F 34.7 °F 27.3 °F 67% 30.05 in 10.0 mi South 3.5 mph - N/A   Clear
7:55 PM 37.0 °F - 28.2 °F 70% 30.05 in 10.0 mi Calm Calm - N/A   Clear
8:15 PM 36.3 °F - 28.0 °F 72% 30.06 in 10.0 mi Calm Calm - N/A   Clear
8:35 PM 35.8 °F - 28.0 °F 73% 30.06 in 10.0 mi Calm Calm - N/A   Clear
8:55 PM 35.8 °F - 28.0 °F 73% 30.06 in 10.0 mi Calm Calm - N/A   Clear
9:15 PM 35.8 °F - 28.4 °F 75% 30.07 in 10.0 mi Calm Calm - N/A   Clear
9:35 PM 35.8 °F - 28.4 °F 75% 30.07 in 10.0 mi Calm Calm - N/A   Clear
9:55 PM 32.9 °F - 27.5 °F 81% 30.07 in 10.0 mi Calm Calm - N/A   Clear
10:15 PM 33.6 °F - 27.7 °F 79% 30.08 in 10.0 mi Calm Calm - N/A   Clear
10:35 PM 33.8 °F - 27.9 °F 79% 30.08 in 10.0 mi Calm Calm - N/A   Clear
10:55 PM 33.3 °F - 27.9 °F 81% 30.08 in 10.0 mi Calm Calm - N/A   Clear
11:15 PM 32.7 °F - 27.9 °F 82% 30.08 in 10.0 mi Calm Calm - N/A   Clear
11:35 PM 33.4 °F - 28.4 °F 82% 30.08 in 10.0 mi Calm Calm - N/A   Clear
11:55 PM 33.1 °F - 28.0 °F 82% 30.09 in 10.0 mi Calm Calm - N/A   Clear